Regional Weather Roundup
Issued by NWS

Home | Current Version | Previous Version | Text Only | Print | Product List | Glossary On
Versions: 1 2 3 4 5 6 7 8 9 10 11 12 13 14 15 16 17 18 19 20 21 22 23 24 25 26 27 28 29 30 31 32 33 34 35 36 37 38 39 40 41 42 43 44 45 46 47 48 49 50
000
ASUS43 KBIS 010610
RWRND

NORTH DAKOTA REGIONAL WEATHER ROUNDUP
NATIONAL WEATHER SERVICE BISMARCK ND
100 AM CDT FRI AUG 01 2014

NOTE: "FAIR" INDICATES FEW OR NO CLOUDS BELOW 12,000 FEET WITH NO
SIGNIFICANT WEATHER AND/OR OBSTRUCTIONS TO VISIBILITY.


NDZ001>003-009>011-017-010700-
NORTHWEST NORTH DAKOTA

CITY           SKY/WX    TMP DP  RH WIND       PRES   REMARKS
WILLISTON      CLEAR     69  59  70 CALM      30.05R
6HR MIN TEMP:  67; 6HR MAX TEMP:  87;

MINOT          CLEAR     64  57  78 CALM      30.05S
MINOT AFB      CLEAR     58  58  99 NE1       30.05S
$$

NDZ018>021-031>035-040>046-010700-
SOUTHWEST NORTH DAKOTA

CITY           SKY/WX    TMP DP  RH WIND       PRES   REMARKS
BISMARCK       CLEAR     65  57  75 NE7       30.05S
6HR MIN TEMP:  65; 6HR MAX TEMP:  85;

DICKINSON      CLEAR     61  56  83 E8        30.05S
GARRISON         N/A     62  56  80 CALM      30.06S
6HR MIN TEMP:  61; 6HR MAX TEMP:  81;

HETTINGER ARPT CLEAR     65  54  67 SE7       30.07S
$$

NDZ004>008-012>016-024-026-027-054-010700-
NORTHEAST NORTH DAKOTA

CITY           SKY/WX    TMP DP  RH WIND       PRES   REMARKS
GRAND FORKS    CLEAR     63  61  93 CALM      30.01S
GRND FRKS AFB  CLEAR     62  62 100 W2        30.03R
DEVILS LAKE    PTCLDY    64  57  77 CALM      30.04R
$$

NDZ022-023-025-028>030-036>039-047>053-010700-
SOUTHEAST NORTH DAKOTA

CITY           SKY/WX    TMP DP  RH WIND       PRES   REMARKS
FARGO          CLEAR     66  60  81 S5        30.01S
6HR MIN TEMP:  66; 6HR MAX TEMP:  82;

JAMESTOWN      CLEAR     62  58  86 CALM      30.05R
$$




USA.gov is the U.S. government's official web portal to all federal, state and local government web resources and services.